Year,Month,Day,Hour,Minute,Value (Times are PST for windgust in km/hr)
2007,02,16,00,00,4.80
2007,02,16,00,01,6.40
2007,02,16,00,02,8.10
2007,02,16,00,03,9.60
2007,02,16,00,04,20.90
2007,02,16,00,05,16.10
2007,02,16,00,06,8.10
2007,02,16,00,07,3.20
2007,02,16,00,08,6.40
2007,02,16,00,09,6.40
2007,02,16,00,10,11.30
2007,02,16,00,11,3.20
2007,02,16,00,12,4.80
2007,02,16,01,02,4.80
2007,02,16,01,03,3.20
2007,02,16,01,04,6.40
2007,02,16,01,05,8.10
2007,02,16,01,06,19.30
2007,02,16,01,07,6.40
2007,02,16,01,08,6.40
2007,02,16,01,09,8.10
2007,02,16,01,10,6.40
2007,02,16,01,11,4.80
2007,02,16,01,12,6.40
2007,02,16,01,13,6.40
2007,02,16,01,14,9.60
2007,02,16,01,15,4.80
2007,02,16,01,16,4.80
2007,02,16,01,17,4.80
2007,02,16,01,18,6.40
2007,02,16,01,19,3.20
2007,02,16,01,20,3.20
2007,02,16,01,21,4.80
2007,02,16,01,22,8.10
2007,02,16,01,23,9.60
2007,02,16,01,24,8.10
2007,02,16,01,25,4.80
2007,02,16,01,26,3.20
2007,02,16,01,27,1.60
2007,02,16,01,28,3.20
2007,02,16,01,29,4.80
2007,02,16,01,30,3.20
2007,02,16,01,31,4.80
2007,02,16,01,32,4.80
2007,02,16,01,33,3.20
2007,02,16,01,34,8.10
2007,02,16,01,35,6.40
2007,02,16,01,36,11.30
2007,02,16,01,37,17.70
2007,02,16,01,38,11.30
2007,02,16,01,39,9.60
2007,02,16,01,40,6.40
2007,02,16,01,41,4.80
2007,02,16,01,42,6.40
2007,02,16,01,43,8.10
2007,02,16,01,44,9.60
2007,02,16,01,45,8.10
2007,02,16,01,46,9.60
2007,02,16,01,47,11.30
2007,02,16,01,48,8.10
2007,02,16,01,49,4.80
2007,02,16,01,50,6.40
2007,02,16,01,51,6.40
2007,02,16,01,52,9.60
2007,02,16,01,53,6.40
2007,02,16,01,54,6.40
2007,02,16,01,55,6.40
2007,02,16,01,56,8.10
2007,02,16,01,57,8.10
2007,02,16,01,58,9.60
2007,02,16,01,59,9.60
2007,02,16,02,00,11.30
2007,02,16,02,01,11.30
2007,02,16,02,02,9.60
2007,02,16,02,03,22.50
2007,02,16,02,04,17.70
2007,02,16,02,05,12.90
2007,02,16,02,06,9.60
2007,02,16,02,07,9.60
2007,02,16,02,08,11.30
2007,02,16,02,09,17.70
2007,02,16,02,10,11.30
2007,02,16,02,11,22.50
2007,02,16,02,12,16.10
2007,02,16,02,13,12.90
2007,02,16,02,14,16.10
2007,02,16,02,15,16.10
2007,02,16,02,16,16.10
2007,02,16,02,17,17.70
2007,02,16,02,18,11.30
2007,02,16,02,19,16.10
2007,02,16,02,20,29.00
2007,02,16,02,21,17.70
2007,02,16,02,22,16.10
2007,02,16,02,23,17.70
2007,02,16,02,24,16.10
2007,02,16,02,25,16.10
2007,02,16,02,26,11.30
2007,02,16,02,27,16.10
2007,02,16,02,28,16.10
2007,02,16,02,29,16.10
2007,02,16,02,30,16.10
2007,02,16,02,31,22.50
2007,02,16,02,32,19.30
2007,02,16,02,33,16.10
2007,02,16,02,34,22.50
2007,02,16,02,35,11.30
2007,02,16,02,36,9.60
2007,02,16,02,37,14.50
2007,02,16,02,38,14.50
2007,02,16,02,39,17.70
2007,02,16,02,40,19.30
2007,02,16,02,41,20.90
2007,02,16,02,42,22.50
2007,02,16,02,43,14.50
2007,02,16,02,44,14.50
2007,02,16,02,45,16.10
2007,02,16,02,46,19.30
2007,02,16,02,47,16.10
2007,02,16,02,48,11.30
2007,02,16,02,49,11.30
2007,02,16,02,50,11.30
2007,02,16,02,51,17.70
2007,02,16,02,52,11.30
2007,02,16,02,53,8.10
2007,02,16,02,54,16.10
2007,02,16,02,55,11.30
2007,02,16,02,56,11.30
2007,02,16,02,57,11.30
2007,02,16,02,58,16.10
2007,02,16,02,59,19.30
2007,02,16,03,00,14.50
2007,02,16,03,01,19.30
2007,02,16,03,02,14.50
2007,02,16,03,03,14.50
2007,02,16,03,04,9.60
2007,02,16,03,05,11.30
2007,02,16,03,06,9.60
2007,02,16,03,07,12.90
2007,02,16,03,08,9.60
2007,02,16,03,09,17.70
2007,02,16,03,10,14.50
2007,02,16,03,11,12.90
2007,02,16,03,12,9.60
2007,02,16,03,13,16.10
2007,02,16,03,14,11.30
2007,02,16,03,15,16.10
2007,02,16,03,16,16.10
2007,02,16,03,17,11.30
2007,02,16,03,18,11.30
2007,02,16,03,19,14.50
2007,02,16,03,20,17.70
2007,02,16,03,21,16.10
2007,02,16,03,22,9.60
2007,02,16,03,23,19.30
2007,02,16,03,24,16.10
2007,02,16,03,25,11.30
2007,02,16,03,26,19.30
2007,02,16,03,27,19.30
2007,02,16,03,28,14.50
2007,02,16,03,29,14.50
2007,02,16,03,30,16.10
2007,02,16,03,31,16.10
2007,02,16,03,32,14.50
2007,02,16,03,33,14.50
2007,02,16,03,34,17.70
2007,02,16,03,35,11.30
2007,02,16,03,36,9.60
2007,02,16,03,37,16.10
2007,02,16,03,38,20.90
2007,02,16,03,39,19.30
2007,02,16,03,40,16.10
2007,02,16,03,41,17.70
2007,02,16,03,42,14.50
2007,02,16,03,43,25.70
2007,02,16,03,44,16.10
2007,02,16,03,45,9.60
2007,02,16,03,46,8.10
2007,02,16,03,47,4.80
2007,02,16,03,48,20.90
2007,02,16,03,49,8.10
2007,02,16,03,50,9.60
2007,02,16,03,51,19.30
2007,02,16,03,52,12.90
2007,02,16,03,53,9.60
2007,02,16,03,54,14.50
2007,02,16,03,55,8.10
2007,02,16,03,56,4.80
2007,02,16,03,57,11.30
2007,02,16,03,58,6.40
2007,02,16,03,59,4.80
2007,02,16,04,00,3.20
2007,02,16,04,01,4.80
2007,02,16,04,02,8.10
2007,02,16,04,03,9.60
2007,02,16,04,04,3.20
2007,02,16,04,05,12.90
2007,02,16,04,06,8.10
2007,02,16,04,07,1.60
2007,02,16,04,08,6.40
2007,02,16,04,09,11.30
2007,02,16,04,10,6.40
2007,02,16,04,11,8.10
2007,02,16,04,12,4.80
2007,02,16,04,13,1.60
2007,02,16,04,14,6.40
2007,02,16,04,15,6.40
2007,02,16,04,16,6.40
2007,02,16,04,17,0.00
2007,02,16,04,18,1.60
2007,02,16,04,19,4.80
2007,02,16,04,20,3.20
2007,02,16,04,21,6.40
2007,02,16,04,22,4.80
2007,02,16,04,23,1.60
2007,02,16,04,24,0.00
2007,02,16,04,25,1.60
2007,02,16,04,26,1.60
2007,02,16,04,27,3.20
2007,02,16,04,28,4.80
2007,02,16,04,29,4.80
2007,02,16,04,30,4.80
2007,02,16,04,31,4.80
2007,02,16,04,32,6.40
2007,02,16,04,33,6.40
2007,02,16,04,34,6.40
2007,02,16,04,35,8.10
2007,02,16,04,36,8.10
2007,02,16,04,37,9.60
2007,02,16,04,38,8.10
2007,02,16,04,39,8.10
2007,02,16,04,40,9.60
2007,02,16,04,41,11.30
2007,02,16,04,42,8.10
2007,02,16,04,43,8.10
2007,02,16,04,44,6.40
2007,02,16,04,45,8.10
2007,02,16,04,46,8.10
2007,02,16,04,47,11.30
2007,02,16,04,48,9.60
2007,02,16,04,49,11.30
2007,02,16,04,50,9.60
2007,02,16,04,51,8.10
2007,02,16,04,52,16.10
2007,02,16,04,53,16.10
2007,02,16,04,54,14.50
2007,02,16,04,55,9.60
2007,02,16,04,56,9.60
2007,02,16,04,57,9.60
2007,02,16,04,58,9.60
2007,02,16,04,59,6.40
2007,02,16,05,00,9.60
2007,02,16,05,01,11.30
2007,02,16,05,02,9.60
2007,02,16,05,03,11.30
2007,02,16,05,04,9.60
2007,02,16,05,05,9.60
2007,02,16,05,06,8.10
2007,02,16,05,07,8.10
2007,02,16,05,08,9.60
2007,02,16,05,09,9.60
2007,02,16,05,10,8.10
2007,02,16,05,11,8.10
2007,02,16,05,12,9.60
2007,02,16,05,13,8.10
2007,02,16,05,14,8.10
2007,02,16,05,15,6.40
2007,02,16,05,16,8.10
2007,02,16,05,17,9.60
2007,02,16,05,18,6.40
2007,02,16,05,19,11.30
2007,02,16,05,20,6.40
2007,02,16,05,21,4.80
2007,02,16,05,22,9.60
2007,02,16,05,23,12.90
2007,02,16,05,24,6.40
2007,02,16,05,25,9.60
2007,02,16,05,26,9.60
2007,02,16,05,27,9.60
2007,02,16,05,28,6.40
2007,02,16,05,29,6.40
2007,02,16,05,30,9.60
2007,02,16,05,31,4.80
2007,02,16,05,32,4.80
2007,02,16,05,33,4.80
2007,02,16,05,34,4.80
2007,02,16,05,35,9.60
2007,02,16,05,36,17.70
2007,02,16,05,37,8.10
2007,02,16,05,38,4.80
2007,02,16,05,39,3.20
2007,02,16,05,40,4.80
2007,02,16,05,41,4.80
2007,02,16,05,42,3.20
2007,02,16,05,43,3.20
2007,02,16,05,44,1.60
2007,02,16,05,45,1.60
2007,02,16,05,46,1.60
2007,02,16,05,47,1.60
2007,02,16,05,48,0.00
2007,02,16,05,49,3.20
2007,02,16,05,50,3.20
2007,02,16,05,51,3.20
2007,02,16,05,52,3.20
2007,02,16,05,53,1.60
2007,02,16,05,54,4.80
2007,02,16,05,55,8.10
2007,02,16,05,56,1.60
2007,02,16,05,57,1.60
2007,02,16,05,58,3.20
2007,02,16,05,59,0.00
2007,02,16,06,00,1.60
2007,02,16,06,01,1.60
2007,02,16,06,02,1.60
2007,02,16,06,03,1.60
2007,02,16,06,04,1.60
2007,02,16,06,05,1.60
2007,02,16,06,06,3.20
2007,02,16,06,07,1.60
2007,02,16,06,08,3.20
2007,02,16,06,09,3.20
2007,02,16,06,10,3.20
2007,02,16,06,11,3.20
2007,02,16,06,12,3.20
2007,02,16,06,13,3.20
2007,02,16,06,14,3.20
2007,02,16,06,15,3.20
2007,02,16,06,16,3.20
2007,02,16,06,17,3.20
2007,02,16,06,18,4.80
2007,02,16,06,19,6.40
2007,02,16,06,20,4.80
2007,02,16,06,21,3.20
2007,02,16,06,22,3.20
2007,02,16,06,23,1.60
2007,02,16,06,24,1.60
2007,02,16,06,25,3.20
2007,02,16,06,26,4.80
2007,02,16,06,27,4.80
2007,02,16,06,28,1.60
2007,02,16,06,29,1.60
2007,02,16,06,30,3.20
2007,02,16,06,31,3.20
2007,02,16,06,32,3.20
2007,02,16,06,33,1.60
2007,02,16,06,34,1.60
2007,02,16,06,35,0.00
2007,02,16,06,36,0.00
2007,02,16,06,37,1.60
2007,02,16,06,38,0.00
2007,02,16,06,39,1.60
2007,02,16,06,40,1.60
2007,02,16,06,41,0.00
2007,02,16,06,42,0.00
2007,02,16,06,43,0.00
2007,02,16,06,44,1.60
2007,02,16,06,45,1.60
2007,02,16,06,46,1.60
2007,02,16,06,47,1.60
2007,02,16,06,48,1.60
2007,02,16,06,49,1.60
2007,02,16,06,50,3.20
2007,02,16,06,51,3.20
2007,02,16,06,52,3.20
2007,02,16,06,53,3.20
2007,02,16,06,54,1.60
2007,02,16,06,55,3.20
2007,02,16,06,56,3.20
2007,02,16,06,57,3.20
2007,02,16,06,58,3.20
2007,02,16,06,59,1.60
2007,02,16,07,00,1.60
2007,02,16,07,01,1.60
2007,02,16,07,02,1.60
2007,02,16,07,03,0.00
2007,02,16,07,04,1.60
2007,02,16,07,05,0.00
2007,02,16,07,06,0.00
2007,02,16,07,07,0.00
2007,02,16,07,08,0.00
2007,02,16,07,09,0.00
2007,02,16,07,10,0.00
2007,02,16,07,11,1.60
2007,02,16,07,12,1.60
2007,02,16,07,13,1.60
2007,02,16,07,14,1.60
2007,02,16,07,15,0.00
2007,02,16,07,16,0.00
2007,02,16,07,17,0.00
2007,02,16,07,18,0.00
2007,02,16,07,19,0.00
2007,02,16,07,20,0.00
2007,02,16,07,21,0.00
2007,02,16,07,22,0.00
2007,02,16,07,23,0.00
2007,02,16,07,24,0.00
2007,02,16,07,25,0.00
2007,02,16,07,26,0.00
2007,02,16,07,27,0.00
2007,02,16,07,28,0.00
2007,02,16,07,29,0.00
2007,02,16,07,30,0.00
2007,02,16,07,31,0.00
2007,02,16,07,32,0.00
2007,02,16,07,33,1.60
2007,02,16,07,34,1.60
2007,02,16,07,35,0.00
2007,02,16,07,36,0.00
2007,02,16,07,37,1.60
2007,02,16,07,38,0.00
2007,02,16,07,39,0.00
2007,02,16,07,40,0.00
2007,02,16,07,41,0.00
2007,02,16,07,42,0.00
2007,02,16,07,43,0.00
2007,02,16,07,44,0.00
2007,02,16,07,45,1.60
2007,02,16,07,46,1.60
2007,02,16,07,47,1.60
2007,02,16,07,48,1.60
2007,02,16,07,49,1.60
2007,02,16,07,50,0.00
2007,02,16,07,51,0.00
2007,02,16,07,52,0.00
2007,02,16,07,53,0.00
2007,02,16,07,54,0.00
2007,02,16,07,55,0.00
2007,02,16,07,56,1.60
2007,02,16,07,57,1.60
2007,02,16,07,58,0.00
2007,02,16,07,59,1.60
2007,02,16,08,00,1.60
2007,02,16,08,01,0.00
2007,02,16,08,02,0.00
2007,02,16,08,03,0.00
2007,02,16,08,04,0.00
2007,02,16,08,05,0.00
2007,02,16,08,06,0.00
2007,02,16,08,07,0.00
2007,02,16,08,08,0.00
2007,02,16,08,09,0.00
2007,02,16,08,10,0.00
2007,02,16,08,11,0.00
2007,02,16,08,12,0.00
2007,02,16,08,13,0.00
2007,02,16,08,14,0.00
2007,02,16,08,15,0.00
2007,02,16,08,16,0.00
2007,02,16,08,17,0.00
2007,02,16,08,18,0.00
2007,02,16,08,19,0.00
2007,02,16,08,20,0.00
2007,02,16,08,21,0.00
2007,02,16,08,22,0.00
2007,02,16,08,23,0.00
2007,02,16,08,24,0.00
2007,02,16,08,25,0.00
2007,02,16,08,26,0.00
2007,02,16,08,27,0.00
2007,02,16,08,28,0.00
2007,02,16,08,29,0.00
2007,02,16,08,30,0.00
2007,02,16,08,31,0.00
2007,02,16,08,32,0.00
2007,02,16,08,33,0.00
2007,02,16,08,34,0.00
2007,02,16,08,35,0.00
2007,02,16,08,36,1.60
2007,02,16,08,37,1.60
2007,02,16,08,38,0.00
2007,02,16,08,39,0.00
2007,02,16,08,40,0.00
2007,02,16,08,41,0.00
2007,02,16,08,42,0.00
2007,02,16,08,43,0.00
2007,02,16,08,44,0.00
2007,02,16,08,45,0.00
2007,02,16,08,46,0.00
2007,02,16,08,47,0.00
2007,02,16,08,48,1.60
2007,02,16,08,49,1.60
2007,02,16,08,50,1.60
2007,02,16,08,51,1.60
2007,02,16,08,52,1.60
2007,02,16,08,53,4.80
2007,02,16,08,54,4.80
2007,02,16,08,55,3.20
2007,02,16,08,56,3.20
2007,02,16,08,57,3.20
2007,02,16,08,58,1.60
2007,02,16,08,59,0.00
2007,02,16,09,00,0.00
2007,02,16,09,01,0.00
2007,02,16,09,02,0.00
2007,02,16,09,03,0.00
2007,02,16,09,04,0.00
2007,02,16,09,05,0.00
2007,02,16,09,06,0.00
2007,02,16,09,07,1.60
2007,02,16,09,08,3.20
2007,02,16,09,09,3.20
2007,02,16,09,10,1.60
2007,02,16,09,11,3.20
2007,02,16,09,12,3.20
2007,02,16,09,13,3.20
2007,02,16,09,14,3.20
2007,02,16,09,15,4.80
2007,02,16,09,16,3.20
2007,02,16,09,17,1.60
2007,02,16,09,18,1.60
2007,02,16,09,19,1.60
2007,02,16,09,20,3.20
2007,02,16,09,21,4.80
2007,02,16,09,22,1.60
2007,02,16,09,23,1.60
2007,02,16,09,24,1.60
2007,02,16,09,25,6.40
2007,02,16,09,26,3.20
2007,02,16,09,27,3.20
2007,02,16,09,28,4.80
2007,02,16,09,29,3.20
2007,02,16,09,30,0.00
2007,02,16,09,31,3.20
2007,02,16,09,32,1.60
2007,02,16,09,33,3.20
2007,02,16,09,34,6.40
2007,02,16,09,35,4.80
2007,02,16,09,36,4.80
2007,02,16,09,37,4.80
2007,02,16,09,38,4.80
2007,02,16,09,39,4.80
2007,02,16,09,40,3.20
2007,02,16,09,41,1.60
2007,02,16,09,42,3.20
2007,02,16,09,43,3.20
2007,02,16,09,44,1.60
2007,02,16,09,45,1.60
2007,02,16,09,46,3.20
2007,02,16,09,47,3.20
2007,02,16,09,48,1.60
2007,02,16,09,49,1.60
2007,02,16,09,50,1.60
2007,02,16,09,51,1.60
2007,02,16,09,52,1.60
2007,02,16,09,53,1.60
2007,02,16,09,54,1.60
2007,02,16,09,55,3.20
2007,02,16,09,56,1.60
2007,02,16,09,57,0.00
2007,02,16,09,58,1.60
2007,02,16,09,59,1.60
2007,02,16,10,00,1.60
2007,02,16,10,01,1.60
2007,02,16,10,02,0.00
2007,02,16,10,03,1.60
2007,02,16,10,04,4.80
2007,02,16,10,05,3.20
2007,02,16,10,06,1.60
2007,02,16,10,07,1.60
2007,02,16,10,08,3.20
2007,02,16,10,09,4.80
2007,02,16,10,10,4.80
2007,02,16,10,11,4.80
2007,02,16,10,12,3.20
2007,02,16,10,13,3.20
2007,02,16,10,14,4.80
2007,02,16,10,15,4.80
2007,02,16,10,16,3.20
2007,02,16,10,17,1.60
2007,02,16,10,18,3.20
2007,02,16,10,19,3.20
2007,02,16,10,20,3.20
2007,02,16,10,21,3.20
2007,02,16,10,22,3.20
2007,02,16,10,23,6.40
2007,02,16,10,24,6.40
2007,02,16,10,25,3.20
2007,02,16,10,26,3.20
2007,02,16,10,27,3.20
2007,02,16,10,28,4.80
2007,02,16,10,29,6.40
2007,02,16,10,30,4.80
2007,02,16,10,31,3.20
2007,02,16,10,32,6.40
2007,02,16,10,33,6.40
2007,02,16,10,34,9.60
2007,02,16,10,35,6.40
2007,02,16,10,36,6.40
2007,02,16,10,37,4.80
2007,02,16,10,38,4.80
2007,02,16,10,39,4.80
2007,02,16,10,40,3.20
2007,02,16,10,41,3.20
2007,02,16,10,42,4.80
2007,02,16,10,43,3.20
2007,02,16,10,44,3.20
2007,02,16,10,45,4.80
2007,02,16,10,46,4.80
2007,02,16,10,47,4.80
2007,02,16,10,48,3.20
2007,02,16,10,49,4.80
2007,02,16,10,50,4.80
2007,02,16,10,51,4.80
2007,02,16,10,52,4.80
2007,02,16,10,53,3.20
2007,02,16,10,54,3.20
2007,02,16,10,55,4.80
2007,02,16,10,56,4.80
2007,02,16,10,57,4.80
2007,02,16,10,58,6.40
2007,02,16,10,59,4.80
2007,02,16,11,00,4.80
2007,02,16,11,01,4.80
2007,02,16,11,02,6.40
2007,02,16,11,03,4.80
2007,02,16,11,04,4.80
2007,02,16,11,05,4.80
2007,02,16,11,06,3.20
2007,02,16,11,07,4.80
2007,02,16,11,08,4.80
2007,02,16,11,09,4.80
2007,02,16,11,10,4.80
2007,02,16,11,11,4.80
2007,02,16,11,12,4.80
2007,02,16,11,13,3.20
2007,02,16,11,14,4.80
2007,02,16,11,15,1.60
2007,02,16,11,16,3.20
2007,02,16,11,17,4.80
2007,02,16,11,18,4.80
2007,02,16,11,19,3.20
2007,02,16,11,20,4.80
2007,02,16,11,21,4.80
2007,02,16,11,22,4.80
2007,02,16,11,23,4.80
2007,02,16,11,24,3.20
2007,02,16,11,25,4.80
2007,02,16,11,26,8.10
2007,02,16,11,27,11.30
2007,02,16,11,28,8.10
2007,02,16,11,29,4.80
2007,02,16,11,30,6.40
2007,02,16,11,31,9.60
2007,02,16,11,32,11.30
2007,02,16,11,33,9.60
2007,02,16,11,34,9.60
2007,02,16,11,35,9.60
2007,02,16,11,36,6.40
2007,02,16,11,37,6.40
2007,02,16,11,38,6.40
2007,02,16,11,39,9.60
2007,02,16,11,40,4.80
2007,02,16,11,41,6.40
2007,02,16,11,42,6.40
2007,02,16,11,43,4.80
2007,02,16,11,44,6.40
2007,02,16,11,45,4.80
2007,02,16,11,46,4.80
2007,02,16,11,47,6.40
2007,02,16,11,48,8.10
2007,02,16,11,49,6.40
2007,02,16,11,50,8.10
2007,02,16,11,51,6.40
2007,02,16,11,52,4.80
2007,02,16,11,53,8.10
2007,02,16,11,54,4.80
2007,02,16,11,55,4.80
2007,02,16,11,56,6.40
2007,02,16,11,57,6.40
2007,02,16,11,58,8.10
2007,02,16,11,59,6.40
2007,02,16,12,00,4.80
2007,02,16,12,01,4.80
2007,02,16,12,02,8.10
2007,02,16,12,03,8.10
2007,02,16,12,04,6.40
2007,02,16,12,05,8.10
2007,02,16,12,06,6.40
2007,02,16,12,07,8.10
2007,02,16,12,08,4.80
2007,02,16,12,09,6.40
2007,02,16,12,10,6.40
2007,02,16,12,11,6.40
2007,02,16,12,12,8.10
2007,02,16,12,13,6.40
2007,02,16,12,14,3.20
2007,02,16,12,15,6.40
2007,02,16,12,16,4.80
2007,02,16,12,17,3.20
2007,02,16,12,18,4.80
2007,02,16,12,19,3.20
2007,02,16,12,20,1.60
2007,02,16,12,21,8.10
2007,02,16,12,22,6.40
2007,02,16,12,23,6.40
2007,02,16,12,24,4.80
2007,02,16,12,25,1.60
2007,02,16,12,26,4.80
2007,02,16,12,27,4.80
2007,02,16,12,28,6.40
2007,02,16,12,29,4.80
2007,02,16,12,30,6.40
2007,02,16,12,31,6.40
2007,02,16,12,32,4.80
2007,02,16,12,33,4.80
2007,02,16,12,34,4.80
2007,02,16,12,35,1.60
2007,02,16,12,36,0.00
2007,02,16,12,37,3.20
2007,02,16,12,38,1.60
2007,02,16,12,39,4.80
2007,02,16,12,40,6.40
2007,02,16,12,41,4.80
2007,02,16,12,42,4.80
2007,02,16,12,43,4.80
2007,02,16,12,44,4.80
2007,02,16,12,45,4.80
2007,02,16,12,46,6.40
2007,02,16,12,47,6.40
2007,02,16,12,48,4.80
2007,02,16,12,49,4.80
2007,02,16,12,50,3.20
2007,02,16,12,51,4.80
2007,02,16,12,52,4.80
2007,02,16,12,53,6.40
2007,02,16,12,54,8.10
2007,02,16,12,55,8.10
2007,02,16,12,56,6.40
2007,02,16,12,57,9.60
2007,02,16,12,58,6.40
2007,02,16,12,59,1.60
2007,02,16,13,00,6.40
2007,02,16,13,01,4.80
2007,02,16,13,02,1.60
2007,02,16,13,03,4.80
2007,02,16,13,04,8.10
2007,02,16,13,05,8.10
2007,02,16,13,06,9.60
2007,02,16,13,07,11.30
2007,02,16,13,08,8.10
2007,02,16,13,09,4.80
2007,02,16,13,10,6.40
2007,02,16,13,11,6.40
2007,02,16,13,12,6.40
2007,02,16,13,13,4.80
2007,02,16,13,14,6.40
2007,02,16,13,15,3.20
2007,02,16,13,16,1.60
2007,02,16,13,17,3.20
2007,02,16,13,18,4.80
2007,02,16,13,19,6.40
2007,02,16,13,20,4.80
2007,02,16,13,21,3.20
2007,02,16,13,22,4.80
2007,02,16,13,23,3.20
2007,02,16,13,24,3.20
2007,02,16,13,25,3.20
2007,02,16,13,26,3.20
2007,02,16,13,27,3.20
2007,02,16,13,28,3.20
2007,02,16,13,29,4.80
2007,02,16,13,30,3.20
2007,02,16,13,31,0.00
2007,02,16,13,32,0.00
2007,02,16,13,33,1.60
2007,02,16,13,34,1.60
2007,02,16,13,35,1.60
2007,02,16,13,36,3.20
2007,02,16,13,37,3.20
2007,02,16,13,38,3.20
2007,02,16,13,39,3.20
2007,02,16,13,40,1.60
2007,02,16,13,41,1.60
2007,02,16,13,42,4.80
2007,02,16,13,43,3.20
2007,02,16,13,44,3.20
2007,02,16,13,45,4.80
2007,02,16,13,46,3.20
2007,02,16,13,47,1.60
2007,02,16,13,48,3.20
2007,02,16,13,49,3.20
2007,02,16,13,50,1.60
2007,02,16,13,51,3.20
2007,02,16,13,52,1.60
2007,02,16,13,53,0.00
2007,02,16,13,54,3.20
2007,02,16,13,55,4.80
2007,02,16,13,56,3.20
2007,02,16,13,57,1.60
2007,02,16,13,58,1.60
2007,02,16,13,59,3.20
2007,02,16,14,00,3.20
2007,02,16,14,01,3.20
2007,02,16,14,02,3.20
2007,02,16,14,03,3.20
2007,02,16,14,04,4.80
2007,02,16,14,05,4.80
2007,02,16,14,06,4.80
2007,02,16,14,07,4.80
2007,02,16,14,08,3.20
2007,02,16,14,09,4.80
2007,02,16,14,10,1.60
2007,02,16,14,11,3.20
2007,02,16,14,12,3.20
2007,02,16,14,13,0.00
2007,02,16,14,14,4.80
2007,02,16,14,15,1.60
2007,02,16,14,16,1.60
2007,02,16,14,17,1.60
2007,02,16,14,18,1.60
2007,02,16,14,19,1.60
2007,02,16,14,20,1.60
2007,02,16,14,21,6.40
2007,02,16,14,22,3.20
2007,02,16,14,23,3.20
2007,02,16,14,24,1.60
2007,02,16,14,25,1.60
2007,02,16,14,26,1.60
2007,02,16,14,27,1.60
2007,02,16,14,28,1.60
2007,02,16,14,29,1.60
2007,02,16,14,30,3.20
2007,02,16,14,31,3.20
2007,02,16,14,32,1.60
2007,02,16,14,33,3.20
2007,02,16,14,34,3.20
2007,02,16,14,35,3.20
2007,02,16,14,36,4.80
2007,02,16,14,37,3.20
2007,02,16,14,38,1.60
2007,02,16,14,39,1.60
2007,02,16,14,40,1.60
2007,02,16,14,41,4.80
2007,02,16,14,42,4.80
2007,02,16,14,43,4.80
2007,02,16,14,44,1.60
2007,02,16,14,45,1.60
2007,02,16,14,46,3.20
2007,02,16,14,47,3.20
2007,02,16,14,48,0.00
2007,02,16,14,49,0.00
2007,02,16,14,50,0.00
2007,02,16,14,51,1.60
2007,02,16,14,52,1.60
2007,02,16,14,53,1.60
2007,02,16,14,54,0.00
2007,02,16,14,55,0.00
2007,02,16,14,56,1.60
2007,02,16,14,57,0.00
2007,02,16,14,58,0.00
2007,02,16,14,59,0.00
2007,02,16,15,00,0.00
2007,02,16,15,01,0.00
2007,02,16,15,02,0.00
2007,02,16,15,03,0.00
2007,02,16,15,04,0.00
2007,02,16,15,05,0.00
2007,02,16,15,06,0.00
2007,02,16,15,07,0.00
2007,02,16,15,08,0.00
2007,02,16,15,09,0.00
2007,02,16,15,10,0.00
2007,02,16,15,11,1.60
2007,02,16,15,12,0.00
2007,02,16,15,13,0.00
2007,02,16,15,14,0.00
2007,02,16,15,15,0.00
2007,02,16,15,16,0.00
2007,02,16,15,17,0.00
2007,02,16,15,18,0.00
2007,02,16,15,19,0.00
2007,02,16,15,20,0.00
2007,02,16,15,21,0.00
2007,02,16,15,22,0.00
2007,02,16,15,23,0.00
2007,02,16,15,24,0.00
2007,02,16,15,25,0.00
2007,02,16,15,26,0.00
2007,02,16,15,27,0.00
2007,02,16,15,28,0.00
2007,02,16,15,29,1.60
2007,02,16,15,30,0.00
2007,02,16,15,31,0.00
2007,02,16,15,32,0.00
2007,02,16,15,33,0.00
2007,02,16,15,34,0.00
2007,02,16,15,35,0.00
2007,02,16,15,36,1.60
2007,02,16,15,37,1.60
2007,02,16,15,38,1.60
2007,02,16,15,39,0.00
2007,02,16,15,40,1.60
2007,02,16,15,41,0.00
2007,02,16,15,42,1.60
2007,02,16,15,43,0.00
2007,02,16,15,44,1.60
2007,02,16,15,45,1.60
2007,02,16,15,46,1.60
2007,02,16,15,47,0.00
2007,02,16,15,48,0.00
2007,02,16,15,49,0.00
2007,02,16,15,50,0.00
2007,02,16,15,51,0.00
2007,02,16,15,52,0.00
2007,02,16,15,53,0.00
2007,02,16,15,54,0.00
2007,02,16,15,55,0.00
2007,02,16,15,56,0.00
2007,02,16,15,57,0.00
2007,02,16,15,58,0.00
2007,02,16,15,59,0.00
2007,02,16,16,00,0.00
2007,02,16,16,01,0.00
2007,02,16,16,02,1.60
2007,02,16,16,03,0.00
2007,02,16,16,04,0.00
2007,02,16,16,05,0.00
2007,02,16,16,06,0.00
2007,02,16,16,07,1.60
2007,02,16,16,08,0.00
2007,02,16,16,09,1.60
2007,02,16,16,10,0.00
2007,02,16,16,11,0.00
2007,02,16,16,12,0.00
2007,02,16,16,13,0.00
2007,02,16,16,14,0.00
2007,02,16,16,15,0.00
2007,02,16,16,16,0.00
2007,02,16,16,17,1.60
2007,02,16,16,18,1.60
2007,02,16,16,19,1.60
2007,02,16,16,20,0.00
2007,02,16,16,21,0.00
2007,02,16,16,22,0.00
2007,02,16,16,23,0.00
2007,02,16,16,24,0.00
2007,02,16,16,25,0.00
2007,02,16,16,26,0.00
2007,02,16,16,27,0.00
2007,02,16,16,28,0.00
2007,02,16,16,29,0.00
2007,02,16,16,30,0.00
2007,02,16,16,31,0.00
2007,02,16,16,32,0.00
2007,02,16,16,33,0.00
2007,02,16,16,34,1.60
2007,02,16,16,35,0.00
2007,02,16,16,36,0.00
2007,02,16,16,37,1.60
2007,02,16,16,38,1.60
2007,02,16,16,39,3.20
2007,02,16,16,40,1.60
2007,02,16,16,41,1.60
2007,02,16,16,42,1.60
2007,02,16,16,43,0.00
2007,02,16,16,44,1.60
2007,02,16,16,45,1.60
2007,02,16,16,46,1.60
2007,02,16,16,47,0.00
2007,02,16,16,48,0.00
2007,02,16,16,49,0.00
2007,02,16,16,50,0.00
2007,02,16,16,51,0.00
2007,02,16,16,52,0.00
2007,02,16,16,53,0.00
2007,02,16,16,54,0.00
2007,02,16,16,55,0.00
2007,02,16,16,56,0.00
2007,02,16,16,57,0.00
2007,02,16,16,58,0.00
2007,02,16,16,59,0.00
2007,02,16,17,00,1.60
2007,02,16,17,01,0.00
2007,02,16,17,02,0.00
2007,02,16,17,03,0.00
2007,02,16,17,04,1.60
2007,02,16,17,05,0.00
2007,02,16,17,06,0.00
2007,02,16,17,07,1.60
2007,02,16,17,08,1.60
2007,02,16,17,09,1.60
2007,02,16,17,10,0.00
2007,02,16,17,11,0.00
2007,02,16,17,12,0.00
2007,02,16,17,13,1.60
2007,02,16,17,14,0.00
2007,02,16,17,15,0.00
2007,02,16,17,16,0.00
2007,02,16,17,17,0.00
2007,02,16,17,18,0.00
2007,02,16,17,19,0.00
2007,02,16,17,20,1.60
2007,02,16,17,21,1.60
2007,02,16,17,22,0.00
2007,02,16,17,23,1.60
2007,02,16,17,24,1.60
2007,02,16,17,25,1.60
2007,02,16,17,26,1.60
2007,02,16,17,27,1.60
2007,02,16,17,28,3.20
2007,02,16,17,29,1.60
2007,02,16,17,30,1.60
2007,02,16,17,31,1.60
2007,02,16,17,32,1.60
2007,02,16,17,33,1.60
2007,02,16,17,34,0.00
2007,02,16,17,35,0.00
2007,02,16,17,36,1.60
2007,02,16,17,37,3.20
2007,02,16,17,38,1.60
2007,02,16,17,39,3.20
2007,02,16,17,40,3.20
2007,02,16,17,41,1.60
2007,02,16,17,42,1.60
2007,02,16,17,43,1.60
2007,02,16,17,44,4.80
2007,02,16,17,45,4.80
2007,02,16,17,46,3.20
2007,02,16,17,47,3.20
2007,02,16,17,48,1.60
2007,02,16,17,49,3.20
2007,02,16,17,50,4.80
2007,02,16,17,51,4.80
2007,02,16,17,52,3.20
2007,02,16,17,53,3.20
2007,02,16,17,54,3.20
2007,02,16,17,55,1.60
2007,02,16,17,56,3.20
2007,02,16,17,57,1.60
2007,02,16,17,58,0.00
2007,02,16,17,59,0.00
2007,02,16,18,00,1.60
2007,02,16,18,01,1.60
2007,02,16,18,02,3.20
2007,02,16,18,03,3.20
2007,02,16,18,04,4.80
2007,02,16,18,05,4.80
2007,02,16,18,06,6.40
2007,02,16,18,07,3.20
2007,02,16,18,08,1.60
2007,02,16,18,09,4.80
2007,02,16,18,10,4.80
2007,02,16,18,11,1.60
2007,02,16,18,12,1.60
2007,02,16,18,13,3.20
2007,02,16,18,14,3.20
2007,02,16,18,15,1.60
2007,02,16,18,16,3.20
2007,02,16,18,17,3.20
2007,02,16,18,18,0.00
2007,02,16,18,19,1.60
2007,02,16,18,20,1.60
2007,02,16,18,21,0.00
2007,02,16,18,22,1.60
2007,02,16,18,23,1.60
2007,02,16,18,24,6.40
2007,02,16,18,25,3.20
2007,02,16,18,26,1.60
2007,02,16,18,27,1.60
2007,02,16,18,28,1.60
2007,02,16,18,29,1.60
2007,02,16,18,30,1.60
2007,02,16,18,31,0.00
2007,02,16,18,32,4.80
2007,02,16,18,33,4.80
2007,02,16,18,34,1.60
2007,02,16,18,35,0.00
2007,02,16,18,36,1.60
2007,02,16,18,37,3.20
2007,02,16,18,38,3.20
2007,02,16,18,39,0.00
2007,02,16,18,40,0.00
2007,02,16,18,41,1.60
2007,02,16,18,42,3.20
2007,02,16,18,43,3.20
2007,02,16,18,44,1.60
2007,02,16,18,45,0.00
2007,02,16,18,46,1.60
2007,02,16,18,47,3.20
2007,02,16,18,48,1.60
2007,02,16,18,49,3.20
2007,02,16,18,50,3.20